Hourly Weather Bolshie Novosyady

Today, 20 June, Sunday

Time Temperature Precipitation Wind Pressure Humidity
00:00 +19°C° 0 mm 2 mps 748 mmHg 89%
01:00 +19°C° 0 mm 2 mps 748 mmHg 90%
02:00 +18°C° 0 mm 2 mps 748 mmHg 90%
03:00 +19°C° 0 mm 2 mps 748 mmHg 90%
04:00 +19°C° 0 mm 2 mps 748 mmHg 90%
05:00 +19°C° 0 mm 2 mps 748 mmHg 90%
06:00 +21°C° 0 mm 2 mps 748 mmHg 85%
07:00 +22°C° 0 mm 3 mps 748 mmHg 81%
08:00 +25°C° 0 mm 3 mps 748 mmHg 76%
09:00 +26°C° 0 mm 3 mps 748 mmHg 72%
10:00 +27°C° 0 mm 4 mps 748 mmHg 68%
11:00 +29°C° 0 mm 4 mps 748 mmHg 63%
12:00 +29°C° 0 mm 4 mps 748 mmHg 61%
13:00 +30°C° 0 mm 4 mps 747 mmHg 59%
14:00 +30°C° 0 mm 4 mps 747 mmHg 57%
15:00 +30°C° 0.2 mm 4 mps 747 mmHg 61%
16:00 +29°C° 0.2 mm 4 mps 747 mmHg 64%
17:00 +29°C° 0.2 mm 3 mps 746 mmHg 67%
18:00 +28°C° 0.2 mm 3 mps 746 mmHg 73%
19:00 +26°C° 0.2 mm 3 mps 746 mmHg 78%
20:00 +25°C° 0.2 mm 2 mps 746 mmHg 84%
21:00 +24°C° 0.1 mm 3 mps 746 mmHg 87%
22:00 +22°C° 0.1 mm 3 mps 746 mmHg 89%
23:00 +21°C° 0.1 mm 3 mps 746 mmHg 92%

Tomorrow, 21 June, Monday

Time Temperature Precipitation Wind Pressure Humidity
00:00 +20°C° 0 mm 3 mps 746 mmHg 92%
01:00 +20°C° 0 mm 2 mps 746 mmHg 93%
02:00 +19°C° 0 mm 2 mps 746 mmHg 94%
03:00 +19°C° 0 mm 2 mps 746 mmHg 93%
04:00 +19°C° 0 mm 2 mps 746 mmHg 93%
05:00 +19°C° 0 mm 2 mps 745 mmHg 93%
06:00 +20°C° 0 mm 3 mps 746 mmHg 88%
07:00 +22°C° 0 mm 3 mps 746 mmHg 83%
08:00 +24°C° 0 mm 3 mps 746 mmHg 78%
09:00 +25°C° 0 mm 4 mps 746 mmHg 72%
10:00 +27°C° 0 mm 4 mps 746 mmHg 66%
11:00 +28°C° 0 mm 4 mps 746 mmHg 61%
12:00 +28°C° 0 mm 5 mps 745 mmHg 59%
13:00 +29°C° 0 mm 5 mps 745 mmHg 58%
14:00 +29°C° 0 mm 5 mps 745 mmHg 56%
15:00 +29°C° 0 mm 5 mps 745 mmHg 59%
16:00 +29°C° 0 mm 5 mps 744 mmHg 61%
17:00 +28°C° 0 mm 5 mps 744 mmHg 63%
18:00 +27°C° 0 mm 4 mps 744 mmHg 69%
19:00 +26°C° 0 mm 3 mps 744 mmHg 74%
20:00 +25°C° 0 mm 3 mps 744 mmHg 79%
21:00 +24°C° 0.1 mm 3 mps 744 mmHg 83%
22:00 +22°C° 0.1 mm 3 mps 744 mmHg 86%
23:00 +21°C° 0.1 mm 3 mps 744 mmHg 90%

Day after tomorrow, 22 June, Tuesday

Time Temperature Precipitation Wind Pressure Humidity
00:00 +20°C° 0.1 mm 3 mps 743 mmHg 91%
01:00 +20°C° 0.1 mm 3 mps 743 mmHg 93%
02:00 +20°C° 0.1 mm 3 mps 743 mmHg 94%
03:00 +20°C° 0 mm 3 mps 743 mmHg 94%
04:00 +20°C° 0 mm 3 mps 743 mmHg 94%
05:00 +20°C° 0 mm 3 mps 743 mmHg 94%
06:00 +21°C° 0 mm 3 mps 743 mmHg 90%
07:00 +24°C° 0 mm 3 mps 744 mmHg 86%
08:00 +25°C° 0 mm 3 mps 744 mmHg 81%
09:00 +26°C° 0.5 mm 4 mps 744 mmHg 77%
10:00 +27°C° 0.5 mm 4 mps 744 mmHg 73%
11:00 +28°C° 0.5 mm 4 mps 744 mmHg 69%
12:00 +29°C° 0.4 mm 4 mps 744 mmHg 67%
13:00 +29°C° 0.4 mm 4 mps 744 mmHg 66%
14:00 +29°C° 0.4 mm 4 mps 744 mmHg 64%
15:00 +29°C° 0.4 mm 3 mps 744 mmHg 66%
16:00 +29°C° 0.4 mm 3 mps 744 mmHg 67%
17:00 +29°C° 0.4 mm 2 mps 744 mmHg 68%
18:00 +28°C° 0.2 mm 2 mps 744 mmHg 72%
19:00 +27°C° 0.2 mm 1 mps 744 mmHg 75%
20:00 +26°C° 0.2 mm 1 mps 744 mmHg 79%
21:00 +25°C° 0 mm 1 mps 744 mmHg 80%
22:00 +25°C° 0 mm 1 mps 744 mmHg 82%
23:00 +24°C° 0 mm 1 mps 744 mmHg 83%

23 June, Wednesday

Time Temperature Precipitation Wind Pressure Humidity
00:00 +24°C° 0.3 mm 1 mps 745 mmHg 85%
01:00 +24°C° 0.3 mm 2 mps 745 mmHg 87%
02:00 +23°C° 0.3 mm 2 mps 745 mmHg 88%
03:00 +23°C° 0 mm 2 mps 745 mmHg 89%
04:00 +23°C° 0 mm 2 mps 745 mmHg 89%
05:00 +21°C° 0 mm 2 mps 745 mmHg 90%
06:00 +24°C° 0 mm 3 mps 745 mmHg 86%
07:00 +25°C° 0 mm 3 mps 746 mmHg 82%
08:00 +26°C° 0 mm 4 mps 746 mmHg 77%
09:00 +27°C° 0.5 mm 3 mps 746 mmHg 75%
10:00 +28°C° 0.5 mm 3 mps 746 mmHg 72%
11:00 +29°C° 0.5 mm 3 mps 746 mmHg 69%
12:00 +30°C° 0.4 mm 3 mps 746 mmHg 66%
13:00 +30°C° 0.4 mm 3 mps 746 mmHg 63%
14:00 +31°C° 0.4 mm 2 mps 746 mmHg 60%
15:00 +31°C° 0.3 mm 3 mps 746 mmHg 63%
16:00 +30°C° 0.3 mm 3 mps 746 mmHg 66%
17:00 +30°C° 0.3 mm 4 mps 745 mmHg 68%
18:00 +29°C° 0.5 mm 3 mps 745 mmHg 73%
19:00 +27°C° 0.5 mm 2 mps 746 mmHg 77%
20:00 +26°C° 0.5 mm 1 mps 746 mmHg 82%
21:00 +24°C° 0.3 mm 1 mps 746 mmHg 85%
22:00 +23°C° 0.3 mm 1 mps 746 mmHg 89%
23:00 +22°C° 0.3 mm 1 mps 747 mmHg 92%

24 June, Thursday

Time Temperature Precipitation Wind Pressure Humidity
00:00 +22°C° 0.4 mm 1 mps 746 mmHg 93%
01:00 +21°C° 0.4 mm 1 mps 746 mmHg 93%
02:00 +19°C° 0.4 mm 0 mps 746 mmHg 94%
03:00 +19°C° 0.1 mm 0 mps 746 mmHg 93%
04:00 +20°C° 0.1 mm 0 mps 746 mmHg 93%
05:00 +20°C° 0.1 mm 0 mps 746 mmHg 92%
06:00 +21°C° 0.1 mm 0 mps 746 mmHg 90%
07:00 +24°C° 0.1 mm 1 mps 746 mmHg 87%
08:00 +25°C° 0.1 mm 1 mps 746 mmHg 85%
09:00 +26°C° 0 mm 1 mps 746 mmHg 79%
10:00 +27°C° 0 mm 1 mps 746 mmHg 74%
11:00 +29°C° 0 mm 1 mps 746 mmHg 68%
12:00 +29°C° 0 mm 1 mps 746 mmHg 66%
13:00 +30°C° 0 mm 1 mps 746 mmHg 64%
14:00 +31°C° 0 mm 2 mps 745 mmHg 63%
15:00 +31°C° 0.3 mm 2 mps 745 mmHg 65%
16:00 +30°C° 0.3 mm 2 mps 745 mmHg 67%
17:00 +30°C° 0.3 mm 2 mps 745 mmHg 69%
18:00 +29°C° 0.9 mm 1 mps 744 mmHg 73%
19:00 +28°C° 0.9 mm 1 mps 744 mmHg 77%
20:00 +24°C° 0.9 mm 0 mps 744 mmHg 81%
21:00 +25°C° 0.4 mm 1 mps 744 mmHg 84%
22:00 +24°C° 0.4 mm 1 mps 744 mmHg 86%
23:00 +23°C° 0.4 mm 1 mps 744 mmHg 88%

25 June, Friday

Time Temperature Precipitation Wind Pressure Humidity
00:00 +23°C° 0.4 mm 1 mps 743 mmHg 90%
01:00 +23°C° 0.4 mm 2 mps 743 mmHg 92%
02:00 +21°C° 0.4 mm 2 mps 742 mmHg 93%
03:00 +21°C° 0.5 mm 2 mps 742 mmHg 94%
04:00 +21°C° 0.5 mm 2 mps 742 mmHg 94%
05:00 +21°C° 0.5 mm 2 mps 741 mmHg 95%
06:00 +23°C° 0 mm 2 mps 742 mmHg 90%
07:00 +24°C° 0 mm 2 mps 742 mmHg 86%
08:00 +25°C° 0 mm 3 mps 742 mmHg 82%
09:00 +26°C° 0 mm 3 mps 742 mmHg 79%
10:00 +27°C° 0 mm 3 mps 742 mmHg 75%
11:00 +27°C° 0 mm 4 mps 742 mmHg 72%
12:00 +28°C° 0.3 mm 4 mps 741 mmHg 71%
13:00 +29°C° 0.3 mm 4 mps 741 mmHg 70%
14:00 +29°C° 0.3 mm 5 mps 741 mmHg 70%
15:00 +28°C° 1.4 mm 4 mps 741 mmHg 74%
16:00 +28°C° 1.4 mm 4 mps 741 mmHg 77%
17:00 +27°C° 1.4 mm 3 mps 740 mmHg 81%
18:00 +26°C° 0.8 mm 3 mps 740 mmHg 83%
19:00 +25°C° 0.8 mm 3 mps 740 mmHg 84%
20:00 +24°C° 0.8 mm 3 mps 740 mmHg 86%
21:00 +22°C° 0.4 mm 3 mps 740 mmHg 87%
22:00 +20°C° 0.4 mm 2 mps 740 mmHg 88%
23:00 +19°C° 0.4 mm 2 mps 740 mmHg 88%
Show more